Etusivu
METAR-TAF:

METAR-TAF

Lentoasemat :

Wahpeton, Pohjois-Dakota, Yhdysvallat

Leveyspiiri: 46-14-39N, Pituuspiiri: 096-36-26W, korkeus merenpinnasta: 295 m

Tämänhetkinen sää

Tämä raportti tehtiin 24 minuuttia sitten, kello 11.35 UTC
Tuuli 9 kn kaakosta
Lämpötila 15°C
Kosteus 88%
Ilmanpaine 1020 hPa
Näkyvyys: 16.1 km

METAR: KBWP 241135Z AUTO 14009KT 10SM 15/13 A3012 RMK AO1

Aika: 06:59 (11:59 UTC)


TAF: puuttuu

Säähavainnot ja -ennusteet yli 4000 lentoasemalta (METAR- ja TAF-raportit).

Käytössä olevat sääasemat on merkitty karttaan keltaisilla ja punaisilla pisteillä.

Aseta hiiri pisteen päälle nähdäksesi sääaseman nimen.

Klikkaa sitten nähdäksesi säähavainnot ja -ennusteet.

Kartan vaihtaminen: klikkaa mustalla rastilla varustettuja vihreitä pisteitä, niin voit zoomata sisään; viivalla varustettua vihreää pistettä, niin voit zoomata ulos tai vihreitä nuolia, niin pääset viereisille kartoille.


METAR-TAF: